Time,TemperatureF,DewpointF,PressureIn,WindDirection,WindDirectionDegrees,WindSpeedMPH,WindSpeedGustMPH,Humidity,HourlyPrecipIn,Conditions,Clouds,dailyrainin,SoftwareType,DateUTC
2013-04-16 00:00:00,75.4,64.1,30.15,ESE,112,1.3,1.3,68,0.00,,---,0.00,VWS V14.01,2013-04-16 04:00:00,
2013-04-16 00:01:00,75.4,64.1,30.15,East,90,1.3,2.5,68,0.00,,---,0.00,VWS V14.01,2013-04-16 04:01:00,
2013-04-16 00:04:00,75.4,64.1,30.15,NNE,22,0.0,0.0,68,0.00,,---,0.00,VWS V14.01,2013-04-16 04:04:00,
2013-04-16 00:05:00,75.2,63.9,30.15,NNE,22,0.9,0.9,68,0.00,,---,0.00,VWS V14.01,2013-04-16 04:05:00,
2013-04-16 00:06:00,75.2,63.9,30.15,NNE,22,0.0,0.9,68,0.00,,---,0.00,VWS V14.01,2013-04-16 04:06:00,
2013-04-16 00:12:00,75.2,63.9,30.15,ENE,68,0.9,1.1,68,0.00,,---,0.00,VWS V14.01,2013-04-16 04:12:00,
2013-04-16 00:17:00,75.0,63.8,30.18,SE,135,0.0,0.0,68,0.00,,---,0.00,VWS V14.01,2013-04-16 04:17:00,
2013-04-16 00:22:00,75.0,63.8,30.18,SE,135,0.0,0.0,68,0.00,,---,0.00,VWS V14.01,2013-04-16 04:22:00,
2013-04-16 00:28:00,74.8,63.6,30.18,East,90,0.0,0.0,68,0.00,,---,0.00,VWS V14.01,2013-04-16 04:28:00,
2013-04-16 00:33:00,74.8,63.6,30.15,East,90,0.0,0.0,68,0.00,,---,0.00,VWS V14.01,2013-04-16 04:33:00,
2013-04-16 00:38:00,74.8,63.6,30.15,East,90,0.0,0.0,68,0.00,,---,0.00,VWS V14.01,2013-04-16 04:38:00,
2013-04-16 00:43:00,74.7,63.8,30.15,ESE,112,0.0,0.0,69,0.00,,---,0.00,VWS V14.01,2013-04-16 04:43:00,
2013-04-16 00:48:00,74.5,63.7,30.15,East,90,0.0,0.0,69,0.00,,---,0.00,VWS V14.01,2013-04-16 04:48:00,
2013-04-16 00:54:00,74.5,63.7,30.15,ESE,112,0.9,0.9,69,0.00,,---,0.00,VWS V14.01,2013-04-16 04:54:00,
2013-04-16 00:59:00,74.3,63.5,30.15,SE,135,0.0,0.0,69,0.00,,---,0.00,VWS V14.01,2013-04-16 04:59:00,
2013-04-16 01:04:00,74.3,63.5,30.15,SE,135,0.0,0.0,69,0.00,,---,0.00,VWS V14.01,2013-04-16 05:04:00,
2013-04-16 01:10:00,74.1,63.3,30.15,SE,135,0.0,0.0,69,0.00,,---,0.00,VWS V14.01,2013-04-16 05:10:00,
2013-04-16 01:16:00,74.1,63.3,30.15,SE,135,0.0,0.0,69,0.00,,---,0.00,VWS V14.01,2013-04-16 05:16:00,
2013-04-16 01:22:00,73.9,63.1,30.15,SE,135,0.0,0.0,69,0.00,,---,0.00,VWS V14.01,2013-04-16 05:22:00,
2013-04-16 01:28:00,73.8,63.0,30.15,SE,135,0.0,0.0,69,0.00,,---,0.00,VWS V14.01,2013-04-16 05:28:00,
2013-04-16 01:34:00,73.6,62.8,30.15,SE,135,0.0,0.0,69,0.00,,---,0.00,VWS V14.01,2013-04-16 05:34:00,
2013-04-16 01:39:00,73.6,63.2,30.15,SE,135,0.0,0.0,70,0.00,,---,0.00,VWS V14.01,2013-04-16 05:39:00,
2013-04-16 01:44:00,73.4,63.0,30.15,SE,135,0.0,0.0,70,0.00,,---,0.00,VWS V14.01,2013-04-16 05:44:00,
2013-04-16 01:49:00,73.4,63.0,30.12,East,90,0.0,0.0,70,0.00,,---,0.00,VWS V14.01,2013-04-16 05:49:00,
2013-04-16 01:55:00,73.2,62.9,30.12,East,90,0.0,0.0,70,0.00,,---,0.00,VWS V14.01,2013-04-16 05:55:00,
2013-04-16 02:00:00,73.0,63.1,30.12,East,90,0.0,0.0,71,0.00,,---,0.00,VWS V14.01,2013-04-16 06:00:00,
2013-04-16 02:05:00,73.0,63.1,30.15,East,90,0.0,0.0,71,0.00,,---,0.00,VWS V14.01,2013-04-16 06:05:00,
2013-04-16 02:10:00,73.0,63.1,30.15,East,90,0.0,0.0,71,0.00,,---,0.00,VWS V14.01,2013-04-16 06:10:00,
2013-04-16 02:16:00,72.9,62.9,30.12,East,90,0.0,0.0,71,0.00,,---,0.00,VWS V14.01,2013-04-16 06:16:00,
2013-04-16 02:21:00,72.7,62.7,30.12,East,90,0.0,0.0,71,0.00,,---,0.00,VWS V14.01,2013-04-16 06:21:00,
2013-04-16 02:27:00,72.7,63.1,30.12,East,90,0.0,0.0,72,0.00,,---,0.00,VWS V14.01,2013-04-16 06:27:00,
2013-04-16 02:32:00,72.7,63.1,30.12,East,90,0.0,0.0,72,0.00,,---,0.00,VWS V14.01,2013-04-16 06:32:00,
2013-04-16 02:37:00,72.5,63.0,30.12,East,90,0.0,0.0,72,0.00,,---,0.00,VWS V14.01,2013-04-16 06:37:00,
2013-04-16 02:42:00,72.5,63.0,30.12,East,90,0.0,0.0,72,0.00,,---,0.00,VWS V14.01,2013-04-16 06:42:00,
2013-04-16 02:48:00,72.3,62.8,30.12,East,90,0.0,0.0,72,0.00,,---,0.00,VWS V14.01,2013-04-16 06:48:00,
2013-04-16 02:53:00,72.3,62.8,30.12,East,90,0.0,0.0,72,0.00,,---,0.00,VWS V14.01,2013-04-16 06:53:00,
2013-04-16 02:59:00,72.1,63.0,30.12,East,90,0.0,0.0,73,0.00,,---,0.00,VWS V14.01,2013-04-16 06:59:00,
2013-04-16 03:05:00,72.1,63.0,30.12,East,90,0.0,0.0,73,0.00,,---,0.00,VWS V14.01,2013-04-16 07:05:00,
2013-04-16 03:10:00,72.1,63.0,30.12,East,90,0.0,0.0,73,0.00,,---,0.00,VWS V14.01,2013-04-16 07:10:00,
2013-04-16 03:15:00,72.0,62.8,30.12,East,90,0.0,0.0,73,0.00,,---,0.00,VWS V14.01,2013-04-16 07:15:00,
2013-04-16 03:21:00,72.0,63.2,30.12,East,90,0.0,0.0,74,0.00,,---,0.00,VWS V14.01,2013-04-16 07:21:00,
2013-04-16 03:26:00,72.0,63.2,30.12,East,90,0.0,0.0,74,0.00,,---,0.00,VWS V14.01,2013-04-16 07:26:00,
2013-04-16 03:32:00,72.0,63.2,30.12,East,90,0.0,0.0,74,0.00,,---,0.00,VWS V14.01,2013-04-16 07:32:00,
2013-04-16 03:37:00,72.0,63.2,30.12,East,90,0.0,0.0,74,0.00,,---,0.00,VWS V14.01,2013-04-16 07:37:00,
2013-04-16 03:42:00,72.0,63.6,30.12,East,90,0.0,0.0,75,0.00,,---,0.00,VWS V14.01,2013-04-16 07:42:00,
2013-04-16 03:48:00,71.8,63.4,30.12,North,0,0.0,0.0,75,0.00,,---,0.00,VWS V14.01,2013-04-16 07:48:00,
2013-04-16 03:54:00,71.8,63.4,30.12,NNW,338,0.0,0.0,75,0.00,,---,0.00,VWS V14.01,2013-04-16 07:54:00,
2013-04-16 03:59:00,71.8,63.4,30.12,NNW,338,0.0,0.0,75,0.00,,---,0.00,VWS V14.01,2013-04-16 07:59:00,
2013-04-16 04:05:00,71.8,63.4,30.12,NNW,338,0.0,0.0,75,0.00,,---,0.00,VWS V14.01,2013-04-16 08:05:00,
2013-04-16 04:10:00,71.8,63.8,30.12,NNE,22,0.0,0.0,76,0.00,,---,0.00,VWS V14.01,2013-04-16 08:10:00,
2013-04-16 04:15:00,71.8,63.8,30.12,SE,135,0.0,0.0,76,0.00,,---,0.00,VWS V14.01,2013-04-16 08:15:00,
2013-04-16 04:20:00,71.6,64.0,30.12,East,90,0.0,0.0,77,0.00,,---,0.00,VWS V14.01,2013-04-16 08:20:00,
2013-04-16 04:26:00,71.6,64.0,30.12,WSW,248,0.0,0.0,77,0.00,,---,0.00,VWS V14.01,2013-04-16 08:26:00,
2013-04-16 04:31:00,71.6,64.0,30.09,West,270,0.0,0.0,77,0.00,,---,0.00,VWS V14.01,2013-04-16 08:31:00,
2013-04-16 04:37:00,71.6,64.0,30.09,ESE,112,0.0,0.0,77,0.00,,---,0.00,VWS V14.01,2013-04-16 08:37:00,
2013-04-16 04:43:00,71.6,64.0,30.09,ESE,112,0.0,0.0,77,0.00,,---,0.00,VWS V14.01,2013-04-16 08:43:00,
2013-04-16 04:48:00,71.6,64.0,30.12,ESE,112,0.0,0.0,77,0.00,,---,0.00,VWS V14.01,2013-04-16 08:48:00,
2013-04-16 04:54:00,71.6,64.0,30.12,ESE,112,0.0,0.0,77,0.00,,---,0.00,VWS V14.01,2013-04-16 08:54:00,
2013-04-16 05:00:00,71.4,64.2,30.12,ESE,112,0.0,0.0,78,0.00,,---,0.00,VWS V14.01,2013-04-16 09:00:00,
2013-04-16 05:05:00,71.4,63.8,30.12,ESE,112,0.0,0.0,77,0.00,,---,0.00,VWS V14.01,2013-04-16 09:05:00,
2013-04-16 05:11:00,71.4,64.2,30.12,ESE,112,0.0,0.0,78,0.00,,---,0.00,VWS V14.01,2013-04-16 09:11:00,
2013-04-16 05:16:00,71.2,64.0,30.12,ESE,112,0.0,0.0,78,0.00,,---,0.00,VWS V14.01,2013-04-16 09:16:00,
2013-04-16 05:22:00,71.2,64.0,30.12,ESE,112,0.0,0.0,78,0.00,,---,0.00,VWS V14.01,2013-04-16 09:22:00,
2013-04-16 05:28:00,71.2,64.0,30.12,ESE,112,0.0,0.0,78,0.00,,---,0.00,VWS V14.01,2013-04-16 09:28:00,
2013-04-16 05:33:00,71.2,64.0,30.12,ESE,112,0.0,0.0,78,0.00,,---,0.00,VWS V14.01,2013-04-16 09:33:00,
2013-04-16 05:39:00,71.1,63.9,30.12,ESE,112,0.0,0.0,78,0.00,,---,0.00,VWS V14.01,2013-04-16 09:39:00,
2013-04-16 05:44:00,71.1,63.9,30.12,ESE,112,0.0,0.0,78,0.00,,---,0.00,VWS V14.01,2013-04-16 09:44:00,
2013-04-16 05:49:00,71.1,63.9,30.12,ESE,112,0.0,0.0,78,0.00,,---,0.00,VWS V14.01,2013-04-16 09:49:00,
2013-04-16 05:54:00,71.1,63.9,30.12,ESE,112,0.0,0.0,78,0.00,,---,0.00,VWS V14.01,2013-04-16 09:54:00,
2013-04-16 06:00:00,70.9,64.1,30.12,ESE,112,0.0,0.0,79,0.00,,---,0.00,VWS V14.01,2013-04-16 10:00:00,
2013-04-16 06:05:00,70.9,64.1,30.15,ESE,112,0.0,0.0,79,0.00,,---,0.00,VWS V14.01,2013-04-16 10:05:00,
2013-04-16 06:12:00,70.9,64.1,30.15,East,90,0.0,1.1,79,0.00,,---,0.00,VWS V14.01,2013-04-16 10:12:00,
2013-04-16 06:18:00,70.9,64.1,30.15,East,90,0.0,0.0,79,0.00,,---,0.00,VWS V14.01,2013-04-16 10:18:00,
2013-04-16 06:24:00,70.9,64.4,30.15,ESE,112,2.0,2.0,80,0.00,,---,0.00,VWS V14.01,2013-04-16 10:24:00,
2013-04-16 06:29:00,70.9,64.4,30.15,East,90,0.0,1.3,80,0.00,,---,0.00,VWS V14.01,2013-04-16 10:29:00,
2013-04-16 06:34:00,70.9,64.4,30.15,East,90,1.3,1.3,80,0.00,,---,0.00,VWS V14.01,2013-04-16 10:34:00,
2013-04-16 06:39:00,70.9,64.4,30.15,ENE,68,0.0,0.9,80,0.00,,---,0.00,VWS V14.01,2013-04-16 10:39:00,
2013-04-16 06:44:00,70.9,64.4,30.15,ENE,68,1.6,1.6,80,0.00,,---,0.00,VWS V14.01,2013-04-16 10:44:00,
2013-04-16 06:50:00,70.9,64.4,30.15,North,0,1.6,2.0,80,0.00,,---,0.00,VWS V14.01,2013-04-16 10:50:00,
2013-04-16 06:56:00,71.1,64.6,30.15,NNW,338,0.9,2.2,80,0.00,,---,0.00,VWS V14.01,2013-04-16 10:56:00,
2013-04-16 07:01:00,71.1,64.6,30.15,ENE,68,2.0,4.0,80,0.00,,---,0.00,VWS V14.01,2013-04-16 11:01:00,
2013-04-16 07:07:00,71.1,64.6,30.15,East,90,1.6,1.6,80,0.00,,---,0.00,VWS V14.01,2013-04-16 11:07:00,
2013-04-16 07:13:00,71.1,64.6,30.15,SE,135,3.4,3.4,80,0.00,,---,0.00,VWS V14.01,2013-04-16 11:13:00,
2013-04-16 07:18:00,71.1,64.6,30.18,East,90,0.9,1.1,80,0.00,,---,0.00,VWS V14.01,2013-04-16 11:18:00,
2013-04-16 07:24:00,71.1,64.6,30.18,ESE,112,3.1,3.1,80,0.00,,---,0.00,VWS V14.01,2013-04-16 11:24:00,
2013-04-16 07:29:00,71.1,64.6,30.18,ESE,112,3.4,4.9,80,0.00,,---,0.00,VWS V14.01,2013-04-16 11:29:00,
2013-04-16 07:34:00,71.1,64.6,30.15,SE,135,1.1,2.2,80,0.00,,---,0.00,VWS V14.01,2013-04-16 11:34:00,
2013-04-16 07:39:00,71.2,64.8,30.15,NE,45,2.2,2.2,80,0.00,,---,0.00,VWS V14.01,2013-04-16 11:39:00,
2013-04-16 07:44:00,71.2,64.8,30.15,SE,135,2.7,3.1,80,0.00,,---,0.00,VWS V14.01,2013-04-16 11:44:00,
2013-04-16 07:49:00,71.2,64.8,30.18,ESE,112,2.0,2.0,80,0.00,,---,0.00,VWS V14.01,2013-04-16 11:49:00,
2013-04-16 07:54:00,71.4,64.9,30.18,ESE,112,2.5,2.5,80,0.00,,---,0.00,VWS V14.01,2013-04-16 11:54:00,
2013-04-16 08:00:00,71.6,65.1,30.18,NNW,338,6.5,6.5,80,0.00,,---,0.00,VWS V14.01,2013-04-16 12:00:00,
2013-04-16 08:06:00,71.8,65.3,30.18,East,90,0.9,2.9,80,0.00,,---,0.00,VWS V14.01,2013-04-16 12:06:00,
2013-04-16 08:11:00,72.0,65.5,30.18,ENE,68,4.0,6.7,80,0.00,,---,0.00,VWS V14.01,2013-04-16 12:11:00,
2013-04-16 08:17:00,72.1,65.6,30.18,ESE,112,1.6,2.9,80,0.00,,---,0.00,VWS V14.01,2013-04-16 12:17:00,
2013-04-16 08:23:00,72.3,66.2,30.18,East,90,6.5,6.5,81,0.00,,---,0.00,VWS V14.01,2013-04-16 12:23:00,
2013-04-16 08:29:00,72.5,66.3,30.18,SE,135,1.6,3.4,81,0.00,,---,0.00,VWS V14.01,2013-04-16 12:29:00,
2013-04-16 08:34:00,72.9,66.7,30.18,SSE,158,4.3,4.3,81,0.00,,---,0.00,VWS V14.01,2013-04-16 12:34:00,
2013-04-16 08:39:00,73.2,67.1,30.18,ESE,112,2.0,2.7,81,0.00,,---,0.00,VWS V14.01,2013-04-16 12:39:00,
2013-04-16 08:45:00,73.6,67.0,30.18,East,90,2.9,8.1,80,0.00,,---,0.00,VWS V14.01,2013-04-16 12:45:00,
2013-04-16 08:50:00,73.9,67.4,30.18,SE,135,1.6,3.4,80,0.00,,---,0.00,VWS V14.01,2013-04-16 12:50:00,
2013-04-16 08:55:00,74.3,67.7,30.18,ENE,68,1.6,4.3,80,0.00,,---,0.00,VWS V14.01,2013-04-16 12:55:00,
2013-04-16 09:00:00,74.8,67.9,30.18,NE,45,5.6,5.6,79,0.00,,---,0.00,VWS V14.01,2013-04-16 13:00:00,
2013-04-16 09:06:00,75.0,68.1,30.21,NE,45,0.9,0.9,79,0.00,,---,0.00,VWS V14.01,2013-04-16 13:06:00,
2013-04-16 09:11:00,75.0,68.1,30.21,NE,45,0.9,0.9,79,0.00,,---,0.00,VWS V14.01,2013-04-16 13:11:00,
2013-04-16 09:17:00,75.9,68.6,30.18,NE,45,0.9,0.9,78,0.00,,---,0.00,VWS V14.01,2013-04-16 13:17:00,
2013-04-16 09:22:00,76.3,68.9,30.18,ESE,112,4.0,4.0,78,0.00,,---,0.00,VWS V14.01,2013-04-16 13:22:00,
2013-04-16 09:28:00,77.0,69.2,30.18,ENE,68,4.0,4.3,77,0.00,,---,0.00,VWS V14.01,2013-04-16 13:28:00,
2013-04-16 09:34:00,77.4,69.2,30.18,East,90,4.7,8.1,76,0.00,,---,0.00,VWS V14.01,2013-04-16 13:34:00,
2013-04-16 09:40:00,77.9,69.3,30.18,NE,45,7.4,7.4,75,0.00,,---,0.00,VWS V14.01,2013-04-16 13:40:00,
2013-04-16 09:46:00,78.4,69.5,30.18,East,90,6.5,6.5,74,0.00,,---,0.00,VWS V14.01,2013-04-16 13:46:00,
2013-04-16 09:51:00,78.8,69.4,30.18,East,90,4.0,7.2,73,0.00,,---,0.00,VWS V14.01,2013-04-16 13:51:00,
2013-04-16 09:57:00,79.3,69.9,30.18,ENE,68,8.7,8.7,73,0.00,,---,0.00,VWS V14.01,2013-04-16 13:57:00,
2013-04-16 10:02:00,79.7,69.5,30.21,SE,135,10.5,10.5,71,0.00,,---,0.00,VWS V14.01,2013-04-16 14:02:00,
2013-04-16 10:08:00,80.2,69.6,30.21,NE,45,5.8,5.8,70,0.00,,---,0.00,VWS V14.01,2013-04-16 14:08:00,
2013-04-16 10:13:00,80.8,69.7,30.21,ENE,68,9.8,9.8,69,0.00,,---,0.00,VWS V14.01,2013-04-16 14:13:00,
2013-04-16 10:19:00,81.3,69.8,30.18,NNE,22,2.7,7.4,68,0.00,,---,0.00,VWS V14.01,2013-04-16 14:19:00,
2013-04-16 10:24:00,81.5,69.1,30.18,SSE,158,5.4,5.8,66,0.00,,---,0.00,VWS V14.01,2013-04-16 14:24:00,
2013-04-16 10:30:00,82.0,69.6,30.18,ESE,112,3.8,6.0,66,0.00,,---,0.00,VWS V14.01,2013-04-16 14:30:00,
2013-04-16 10:35:00,82.4,69.0,30.18,East,90,5.8,7.2,64,0.00,,---,0.00,VWS V14.01,2013-04-16 14:35:00,
2013-04-16 10:41:00,82.9,68.6,30.18,East,90,3.6,5.8,62,0.00,,---,0.00,VWS V14.01,2013-04-16 14:41:00,
2013-04-16 10:46:00,83.5,68.6,30.18,SE,135,7.2,7.2,61,0.00,,---,0.00,VWS V14.01,2013-04-16 14:46:00,
2013-04-16 10:51:00,83.8,69.0,30.18,East,90,3.8,6.5,61,0.00,,---,0.00,VWS V14.01,2013-04-16 14:51:00,
2013-04-16 10:56:00,84.4,69.0,30.18,North,0,1.3,7.8,60,0.00,,---,0.00,VWS V14.01,2013-04-16 14:56:00,
2013-04-16 11:02:00,84.6,68.7,30.18,East,90,10.5,10.5,59,0.00,,---,0.00,VWS V14.01,2013-04-16 15:02:00,
2013-04-16 11:08:00,85.1,69.2,30.18,East,90,4.5,6.0,59,0.00,,---,0.00,VWS V14.01,2013-04-16 15:08:00,
2013-04-16 11:13:00,85.5,68.5,30.18,SSE,158,8.7,8.7,57,0.00,,---,0.00,VWS V14.01,2013-04-16 15:13:00,
2013-04-16 11:19:00,85.8,67.8,30.18,NNE,22,2.5,3.6,55,0.00,,---,0.00,VWS V14.01,2013-04-16 15:19:00,
2013-04-16 11:24:00,86.0,68.0,30.18,SE,135,2.0,2.0,55,0.00,,---,0.00,VWS V14.01,2013-04-16 15:24:00,
2013-04-16 11:30:00,86.5,67.9,30.18,ENE,68,3.6,3.6,54,0.00,,---,0.00,VWS V14.01,2013-04-16 15:30:00,
2013-04-16 11:36:00,87.4,68.2,30.21,NE,45,1.6,1.6,53,0.00,,---,0.00,VWS V14.01,2013-04-16 15:36:00,
2013-04-16 11:41:00,88.0,67.6,30.21,ENE,68,1.6,7.4,51,0.00,,---,0.00,VWS V14.01,2013-04-16 15:41:00,
2013-04-16 11:47:00,88.2,67.2,30.18,ESE,112,2.0,2.7,50,0.00,,---,0.00,VWS V14.01,2013-04-16 15:47:00,
2013-04-16 11:52:00,88.2,66.0,30.18,ENE,68,0.9,0.9,48,0.00,,---,0.00,VWS V14.01,2013-04-16 15:52:00,
2013-04-16 11:57:00,88.7,66.5,30.18,ESE,112,6.0,6.0,48,0.00,,---,0.00,VWS V14.01,2013-04-16 15:57:00,
2013-04-16 12:02:00,88.7,65.3,30.18,East,90,10.1,10.1,46,0.00,,---,0.00,VWS V14.01,2013-04-16 16:02:00,
2013-04-16 12:08:00,88.7,65.3,30.18,ENE,68,2.9,6.5,46,0.00,,---,0.00,VWS V14.01,2013-04-16 16:08:00,
2013-04-16 12:13:00,88.9,65.4,30.18,SSW,202,3.6,3.6,46,0.00,,---,0.00,VWS V14.01,2013-04-16 16:13:00,
2013-04-16 12:19:00,89.4,65.3,30.21,NE,45,3.4,5.6,45,0.00,,---,0.00,VWS V14.01,2013-04-16 16:19:00,
2013-04-16 12:25:00,89.6,64.8,30.21,South,180,3.4,4.9,44,0.00,,---,0.00,VWS V14.01,2013-04-16 16:25:00,
2013-04-16 12:30:00,89.4,64.7,30.21,ESE,112,5.4,6.3,44,0.00,,---,0.00,VWS V14.01,2013-04-16 16:30:00,
2013-04-16 12:36:00,90.0,64.5,30.21,SW,225,4.0,4.0,43,0.00,,---,0.00,VWS V14.01,2013-04-16 16:36:00,
2013-04-16 12:41:00,90.7,65.1,30.21,East,90,4.0,4.0,43,0.00,,---,0.00,VWS V14.01,2013-04-16 16:41:00,
2013-04-16 12:47:00,91.0,64.8,30.18,East,90,5.4,5.6,42,0.00,,---,0.00,VWS V14.01,2013-04-16 16:47:00,
2013-04-16 12:53:00,91.2,63.5,30.18,NNE,22,4.9,4.9,40,0.00,,---,0.00,VWS V14.01,2013-04-16 16:53:00,
2013-04-16 12:58:00,91.4,63.7,30.18,NE,45,3.4,6.0,40,0.00,,---,0.00,VWS V14.01,2013-04-16 16:58:00,
2013-04-16 13:03:00,91.6,63.9,30.18,NNE,22,2.2,2.2,40,0.00,,---,0.00,VWS V14.01,2013-04-16 17:03:00,
2013-04-16 13:09:00,91.9,64.2,30.18,SE,135,3.4,8.1,40,0.00,,---,0.00,VWS V14.01,2013-04-16 17:09:00,
2013-04-16 13:14:00,92.3,64.5,30.18,NE,45,2.5,3.6,40,0.00,,---,0.00,VWS V14.01,2013-04-16 17:14:00,
2013-04-16 13:19:00,92.1,63.6,30.18,East,90,5.4,6.9,39,0.00,,---,0.00,VWS V14.01,2013-04-16 17:19:00,
2013-04-16 13:25:00,92.3,62.3,30.18,East,90,2.7,5.8,37,0.00,,---,0.00,VWS V14.01,2013-04-16 17:25:00,
2013-04-16 13:31:00,92.3,63.0,30.18,NE,45,0.0,5.4,38,0.00,,---,0.00,VWS V14.01,2013-04-16 17:31:00,
2013-04-16 13:37:00,92.7,63.4,30.18,ESE,112,3.1,3.1,38,0.00,,---,0.00,VWS V14.01,2013-04-16 17:37:00,
2013-04-16 13:43:00,92.7,62.6,30.18,NW,315,4.0,6.3,37,0.00,,---,0.00,VWS V14.01,2013-04-16 17:43:00,
2013-04-16 13:48:00,92.8,62.8,30.15,NNE,22,3.1,6.3,37,0.00,,---,0.00,VWS V14.01,2013-04-16 17:48:00,
2013-04-16 13:53:00,92.7,61.8,30.15,South,180,2.9,4.9,36,0.00,,---,0.00,VWS V14.01,2013-04-16 17:53:00,
2013-04-16 13:59:00,91.8,60.2,30.15,North,0,2.9,2.9,35,0.00,,---,0.00,VWS V14.01,2013-04-16 17:59:00,
2013-04-16 14:05:00,91.2,60.6,30.15,NNE,22,3.1,4.3,36,0.00,,---,0.00,VWS V14.01,2013-04-16 18:05:00,
2013-04-16 14:10:00,90.9,61.0,30.15,East,90,4.3,4.3,37,0.00,,---,0.00,VWS V14.01,2013-04-16 18:10:00,
2013-04-16 14:15:00,90.7,60.1,30.15,ESE,112,1.6,1.6,36,0.00,,---,0.00,VWS V14.01,2013-04-16 18:15:00,
2013-04-16 14:21:00,90.0,61.0,30.15,East,90,2.7,4.0,38,0.00,,---,0.00,VWS V14.01,2013-04-16 18:21:00,
2013-04-16 14:26:00,89.2,61.8,30.15,NNW,338,2.2,3.1,40,0.00,,---,0.00,VWS V14.01,2013-04-16 18:26:00,
2013-04-16 14:32:00,88.7,62.0,30.15,SSE,158,1.3,3.8,41,0.00,,---,0.00,VWS V14.01,2013-04-16 18:32:00,
2013-04-16 14:37:00,88.2,61.5,30.15,SSE,158,2.7,2.7,41,0.00,,---,0.00,VWS V14.01,2013-04-16 18:37:00,
2013-04-16 14:43:00,88.0,62.0,30.15,East,90,2.9,2.9,42,0.00,,---,0.00,VWS V14.01,2013-04-16 18:43:00,
2013-04-16 14:48:00,87.6,62.4,30.15,NW,315,3.4,3.4,43,0.00,,---,0.00,VWS V14.01,2013-04-16 18:48:00,
2013-04-16 14:54:00,87.6,62.4,30.15,East,90,1.3,3.4,43,0.00,,---,0.00,VWS V14.01,2013-04-16 18:54:00,
2013-04-16 14:59:00,87.4,62.9,30.15,WSW,248,4.0,5.8,44,0.00,,---,0.00,VWS V14.01,2013-04-16 18:59:00,
2013-04-16 15:05:00,87.4,62.9,30.15,SSE,158,3.1,3.1,44,0.00,,---,0.00,VWS V14.01,2013-04-16 19:05:00,
2013-04-16 15:10:00,87.6,63.7,30.15,South,180,2.9,3.6,45,0.00,,---,0.00,VWS V14.01,2013-04-16 19:10:00,
2013-04-16 15:15:00,87.3,63.3,30.15,SSW,202,2.0,2.2,45,0.00,,---,0.00,VWS V14.01,2013-04-16 19:15:00,
2013-04-16 15:20:00,87.1,63.8,30.15,South,180,2.7,2.7,46,0.00,,---,0.00,VWS V14.01,2013-04-16 19:20:00,
2013-04-16 15:26:00,86.7,63.5,30.15,SW,225,0.9,1.1,46,0.00,,---,0.00,VWS V14.01,2013-04-16 19:26:00,
2013-04-16 15:31:00,86.5,63.3,30.15,WSW,248,1.6,3.1,46,0.00,,---,0.00,VWS V14.01,2013-04-16 19:31:00,
2013-04-16 15:36:00,86.2,63.0,30.15,SSE,158,1.6,4.0,46,0.00,,---,0.00,VWS V14.01,2013-04-16 19:36:00,
2013-04-16 15:42:00,85.8,62.7,30.15,NNW,338,4.0,4.0,46,0.00,,---,0.00,VWS V14.01,2013-04-16 19:42:00,
2013-04-16 15:47:00,85.8,62.7,30.12,WSW,248,2.0,3.1,46,0.00,,---,0.00,VWS V14.01,2013-04-16 19:47:00,
2013-04-16 15:52:00,86.0,62.8,30.12,SW,225,2.5,2.5,46,0.00,,---,0.00,VWS V14.01,2013-04-16 19:52:00,
2013-04-16 15:58:00,86.5,63.3,30.12,West,270,3.4,3.4,46,0.00,,---,0.00,VWS V14.01,2013-04-16 19:58:00,
2013-04-16 16:03:00,86.9,63.0,30.15,SW,225,2.0,2.0,45,0.00,,---,0.00,VWS V14.01,2013-04-16 20:03:00,
2013-04-16 16:08:00,87.1,63.2,30.15,North,0,3.6,3.6,45,0.00,,---,0.00,VWS V14.01,2013-04-16 20:08:00,
2013-04-16 16:14:00,87.8,62.5,30.15,SW,225,2.9,2.9,43,0.00,,---,0.00,VWS V14.01,2013-04-16 20:14:00,
2013-04-16 16:20:00,88.2,62.2,30.12,SW,225,4.0,4.3,42,0.00,,---,0.00,VWS V14.01,2013-04-16 20:20:00,
2013-04-16 16:25:00,88.2,61.5,30.12,SSW,202,2.9,2.9,41,0.00,,---,0.00,VWS V14.01,2013-04-16 20:25:00,
2013-04-16 16:31:00,88.5,61.8,30.12,NW,315,2.7,3.1,41,0.00,,---,0.00,VWS V14.01,2013-04-16 20:31:00,
2013-04-16 16:36:00,88.9,62.2,30.12,West,270,3.8,3.8,41,0.00,,---,0.00,VWS V14.01,2013-04-16 20:36:00,
2013-04-16 16:42:00,89.2,62.5,30.12,NW,315,7.4,7.4,41,0.00,,---,0.00,VWS V14.01,2013-04-16 20:42:00,
2013-04-16 16:47:00,89.6,62.1,30.12,WNW,292,2.7,4.7,40,0.00,,---,0.00,VWS V14.01,2013-04-16 20:47:00,
2013-04-16 16:53:00,90.1,62.6,30.12,SW,225,2.7,4.0,40,0.00,,---,0.00,VWS V14.01,2013-04-16 20:53:00,
2013-04-16 16:59:00,89.8,62.3,30.12,WSW,248,4.9,4.9,40,0.00,,---,0.00,VWS V14.01,2013-04-16 20:59:00,
2013-04-16 17:04:00,90.0,61.7,30.12,NNW,338,2.5,2.5,39,0.00,,---,0.00,VWS V14.01,2013-04-16 21:04:00,
2013-04-16 17:09:00,90.1,61.9,30.12,North,0,1.6,1.6,39,0.00,,---,0.00,VWS V14.01,2013-04-16 21:09:00,
2013-04-16 17:14:00,90.3,62.0,30.12,NW,315,1.1,2.9,39,0.00,,---,0.00,VWS V14.01,2013-04-16 21:14:00,
2013-04-16 17:19:00,90.7,62.3,30.12,WNW,292,3.1,3.1,39,0.00,,---,0.00,VWS V14.01,2013-04-16 21:19:00,
2013-04-16 17:25:00,90.7,61.6,30.12,North,0,1.3,4.0,38,0.00,,---,0.00,VWS V14.01,2013-04-16 21:25:00,
2013-04-16 17:31:00,90.1,61.1,30.12,SW,225,2.7,2.7,38,0.00,,---,0.00,VWS V14.01,2013-04-16 21:31:00,
2013-04-16 17:37:00,90.0,61.0,30.12,WSW,248,1.6,3.4,38,0.00,,---,0.00,VWS V14.01,2013-04-16 21:37:00,
2013-04-16 17:42:00,90.1,61.1,30.12,SSW,202,2.9,3.8,38,0.00,,---,0.00,VWS V14.01,2013-04-16 21:42:00,
2013-04-16 17:48:00,90.0,61.0,30.12,NW,315,3.4,6.5,38,0.00,,---,0.00,VWS V14.01,2013-04-16 21:48:00,
2013-04-16 17:54:00,89.8,60.8,30.12,NNW,338,5.4,5.4,38,0.00,,---,0.00,VWS V14.01,2013-04-16 21:54:00,
2013-04-16 18:00:00,89.6,60.7,30.12,SSE,158,1.6,1.6,38,0.00,,---,0.00,VWS V14.01,2013-04-16 22:00:00,
2013-04-16 18:05:00,89.2,61.1,30.15,North,0,1.3,3.8,39,0.00,,---,0.00,VWS V14.01,2013-04-16 22:05:00,
2013-04-16 18:10:00,88.7,60.6,30.15,SSW,202,1.6,3.8,39,0.00,,---,0.00,VWS V14.01,2013-04-16 22:10:00,
2013-04-16 18:16:00,88.7,60.6,30.12,NNW,338,2.5,2.5,39,0.00,,---,0.00,VWS V14.01,2013-04-16 22:16:00,
2013-04-16 18:22:00,88.7,60.6,30.12,SSW,202,1.1,2.7,39,0.00,,---,0.00,VWS V14.01,2013-04-16 22:22:00,
2013-04-16 18:27:00,88.7,61.3,30.12,SW,225,3.8,3.8,40,0.00,,---,0.00,VWS V14.01,2013-04-16 22:27:00,
2013-04-16 18:32:00,88.3,60.3,30.12,WNW,292,4.9,4.9,39,0.00,,---,0.00,VWS V14.01,2013-04-16 22:32:00,
2013-04-16 18:38:00,88.3,60.3,30.12,NNW,338,4.3,4.3,39,0.00,,---,0.00,VWS V14.01,2013-04-16 22:38:00,
2013-04-16 18:44:00,88.3,60.3,30.12,WSW,248,2.9,2.9,39,0.00,,---,0.00,VWS V14.01,2013-04-16 22:44:00,
2013-04-16 18:49:00,88.2,60.1,30.15,NW,315,3.6,3.6,39,0.00,,---,0.00,VWS V14.01,2013-04-16 22:49:00,
2013-04-16 18:54:00,88.0,60.0,30.15,West,270,3.1,3.1,39,0.00,,---,0.00,VWS V14.01,2013-04-16 22:54:00,
2013-04-16 19:00:00,87.4,60.2,30.15,NNW,338,3.1,3.1,40,0.00,,---,0.00,VWS V14.01,2013-04-16 23:00:00,
2013-04-16 19:05:00,87.1,59.8,30.15,NW,315,4.9,4.9,40,0.00,,---,0.00,VWS V14.01,2013-04-16 23:05:00,
2013-04-16 19:10:00,86.7,59.5,30.15,ESE,112,1.6,2.2,40,0.00,,---,0.00,VWS V14.01,2013-04-16 23:10:00,
2013-04-16 19:15:00,86.2,59.7,30.15,NW,315,4.9,4.9,41,0.00,,---,0.00,VWS V14.01,2013-04-16 23:15:00,
2013-04-16 19:20:00,85.6,60.6,30.15,NNW,338,3.8,4.9,43,0.00,,---,0.00,VWS V14.01,2013-04-16 23:20:00,
2013-04-16 19:26:00,85.5,61.1,30.15,SW,225,1.6,1.6,44,0.00,,---,0.00,VWS V14.01,2013-04-16 23:26:00,
2013-04-16 19:32:00,84.9,62.5,30.15,South,180,0.9,1.3,47,0.00,,---,0.00,VWS V14.01,2013-04-16 23:32:00,
2013-04-16 19:37:00,84.6,63.9,30.15,NW,315,2.7,2.7,50,0.00,,---,0.00,VWS V14.01,2013-04-16 23:37:00,
2013-04-16 19:43:00,83.8,66.0,30.15,NNE,22,2.5,2.5,55,0.04,,---,0.04,VWS V14.01,2013-04-16 23:43:00,
2013-04-16 19:48:00,82.6,65.8,30.15,ESE,112,3.6,3.6,57,0.37,,---,0.37,VWS V14.01,2013-04-16 23:48:00,
2013-04-16 19:53:00,81.0,64.3,30.15,SSW,202,7.4,7.4,57,0.79,,---,0.79,VWS V14.01,2013-04-16 23:53:00,
2013-04-16 19:58:00,79.9,64.8,30.15,WSW,248,4.3,4.3,60,1.04,,---,1.04,VWS V14.01,2013-04-16 23:58:00,
2013-04-16 20:04:00,79.0,64.9,30.18,WNW,292,2.9,4.0,62,1.20,,---,1.20,VWS V14.01,2013-04-17 00:04:00,
2013-04-16 20:09:00,78.4,64.8,30.18,SW,225,4.7,4.7,63,1.24,,---,1.24,VWS V14.01,2013-04-17 00:09:00,
2013-04-16 20:15:00,77.9,64.3,30.18,SW,225,4.7,4.7,63,1.24,,---,1.24,VWS V14.01,2013-04-17 00:15:00,
2013-04-16 20:20:00,77.7,65.0,30.18,SW,225,4.7,4.7,65,1.24,,---,1.24,VWS V14.01,2013-04-17 00:20:00,
2013-04-16 20:26:00,77.2,65.4,30.18,SW,225,4.7,4.7,67,1.24,,---,1.24,VWS V14.01,2013-04-17 00:26:00,
2013-04-16 20:32:00,77.0,65.6,30.18,North,0,2.5,2.5,68,1.29,,---,1.29,VWS V14.01,2013-04-17 00:32:00,
2013-04-16 20:37:00,76.5,65.5,30.18,ENE,68,2.2,2.2,69,1.29,,---,1.29,VWS V14.01,2013-04-17 00:37:00,
2013-04-16 20:43:00,76.3,65.4,30.18,SSW,202,3.4,3.4,69,1.25,,---,1.29,VWS V14.01,2013-04-17 00:43:00,
2013-04-16 20:48:00,76.3,66.2,30.18,SSW,202,3.4,3.4,71,1.00,,---,1.29,VWS V14.01,2013-04-17 00:48:00,
2013-04-16 20:54:00,76.1,66.8,30.18,SSE,158,1.3,1.3,73,0.50,,---,1.29,VWS V14.01,2013-04-17 00:54:00,
2013-04-16 20:59:00,76.1,67.2,30.18,WSW,248,1.6,2.5,74,0.25,,---,1.29,VWS V14.01,2013-04-17 00:59:00,
2013-04-16 21:04:00,76.1,67.6,30.21,ESE,112,0.9,2.7,75,0.09,,---,1.29,VWS V14.01,2013-04-17 01:04:00,
2013-04-16 21:09:00,76.3,67.8,30.21,South,180,0.0,0.9,75,0.05,,---,1.29,VWS V14.01,2013-04-17 01:09:00,
2013-04-16 21:14:00,76.3,68.2,30.21,SSW,202,1.3,1.3,76,0.05,,---,1.29,VWS V14.01,2013-04-17 01:14:00,
2013-04-16 21:19:00,76.3,68.2,30.18,South,180,0.0,0.0,76,0.05,,---,1.29,VWS V14.01,2013-04-17 01:19:00,
2013-04-16 21:24:00,76.1,68.4,30.18,ENE,68,0.0,0.0,77,0.05,,---,1.29,VWS V14.01,2013-04-17 01:24:00,
2013-04-16 21:29:00,76.3,68.9,30.18,North,0,1.3,1.3,78,0.05,,---,1.29,VWS V14.01,2013-04-17 01:29:00,
2013-04-16 21:34:00,76.3,68.9,30.21,North,0,0.0,0.0,78,0.00,,---,1.29,VWS V14.01,2013-04-17 01:34:00,
2013-04-16 21:40:00,76.3,69.3,30.21,ESE,112,0.0,0.0,79,0.00,,---,1.29,VWS V14.01,2013-04-17 01:40:00,
2013-04-16 21:45:00,76.1,69.1,30.21,East,90,2.2,2.2,79,0.00,,---,1.29,VWS V14.01,2013-04-17 01:45:00,
2013-04-16 21:51:00,76.1,69.1,30.21,East,90,2.2,2.2,79,0.00,,---,1.29,VWS V14.01,2013-04-17 01:51:00,
2013-04-16 21:56:00,76.1,69.1,30.21,East,90,1.3,2.7,79,0.00,,---,1.29,VWS V14.01,2013-04-17 01:56:00,
2013-04-16 22:02:00,76.1,69.1,30.21,ENE,68,2.0,3.4,79,0.00,,---,1.29,VWS V14.01,2013-04-17 02:02:00,
2013-04-16 22:08:00,76.1,69.1,30.21,NNE,22,0.0,1.6,79,0.00,,---,1.29,VWS V14.01,2013-04-17 02:08:00,
2013-04-16 22:13:00,75.9,68.9,30.21,East,90,1.6,2.0,79,0.00,,---,1.29,VWS V14.01,2013-04-17 02:13:00,
2013-04-16 22:19:00,75.7,68.4,30.21,ESE,112,4.3,4.3,78,0.00,,---,1.29,VWS V14.01,2013-04-17 02:19:00,
2013-04-16 22:25:00,75.7,68.4,30.21,East,90,2.7,2.9,78,0.00,,---,1.29,VWS V14.01,2013-04-17 02:25:00,
2013-04-16 22:30:00,75.6,68.2,30.21,ENE,68,2.0,2.0,78,0.00,,---,1.29,VWS V14.01,2013-04-17 02:30:00,
2013-04-16 22:36:00,75.4,67.7,30.21,ENE,68,3.1,3.1,77,0.00,,---,1.29,VWS V14.01,2013-04-17 02:36:00,
2013-04-16 22:41:00,75.2,67.1,30.21,South,180,1.1,2.7,76,0.00,,---,1.29,VWS V14.01,2013-04-17 02:41:00,
2013-04-16 22:47:00,74.8,66.4,30.21,ESE,112,1.6,2.7,75,0.00,,---,1.29,VWS V14.01,2013-04-17 02:47:00,
2013-04-16 22:53:00,74.7,66.2,30.21,East,90,3.8,4.5,75,0.00,,---,1.29,VWS V14.01,2013-04-17 02:53:00,
2013-04-16 22:58:00,74.5,66.0,30.21,SE,135,1.6,4.0,75,0.00,,---,1.29,VWS V14.01,2013-04-17 02:58:00,
2013-04-16 23:03:00,74.3,65.5,30.21,ESE,112,1.1,2.0,74,0.00,,---,1.29,VWS V14.01,2013-04-17 03:03:00,
2013-04-16 23:09:00,74.3,65.5,30.21,ENE,68,2.9,5.4,74,0.00,,---,1.29,VWS V14.01,2013-04-17 03:09:00,
2013-04-16 23:14:00,74.1,65.3,30.21,ENE,68,4.3,4.3,74,0.00,,---,1.29,VWS V14.01,2013-04-17 03:14:00,
2013-04-16 23:20:00,74.1,64.9,30.21,ENE,68,10.3,10.3,73,0.00,,---,1.29,VWS V14.01,2013-04-17 03:20:00,
2013-04-16 23:26:00,73.9,64.8,30.21,ESE,112,2.7,4.0,73,0.00,,---,1.29,VWS V14.01,2013-04-17 03:26:00,
2013-04-16 23:31:00,73.9,64.3,30.21,ESE,112,4.0,4.9,72,0.00,,---,1.29,VWS V14.01,2013-04-17 03:31:00,
2013-04-16 23:36:00,73.9,64.3,30.21,ESE,112,1.6,4.0,72,0.00,,---,1.29,VWS V14.01,2013-04-17 03:36:00,
2013-04-16 23:42:00,73.8,64.2,30.21,ESE,112,1.3,3.4,72,0.00,,---,1.29,VWS V14.01,2013-04-17 03:42:00,
2013-04-16 23:48:00,73.8,64.2,30.21,East,90,2.9,2.9,72,0.00,,---,1.29,VWS V14.01,2013-04-17 03:48:00,
2013-04-16 23:53:00,73.6,64.0,30.21,ENE,68,3.6,3.6,72,0.00,,---,1.29,VWS V14.01,2013-04-17 03:53:00,
2013-04-16 23:59:00,73.6,64.4,30.21,ENE,68,2.9,3.1,73,0.00,,---,1.29,VWS V14.01,2013-04-17 03:59:00,